[[{"header":{"parameterUnit":"m.s-1","parameterCategory":2,"la1":30.2991,"la2":30.254,"lo1":-89.0895,"lo2":-89.0444,"dy":0.0017,"dx":0.0017,"nx":28,"ny":28,"refTime":"2025-02-08T03:00:00:Z","depth":"0","parameterNumber":2,"parameterNumberName":"U-component_of_CURRENTS"},"data":[0,0,0,0,0,0,0,0,0,0,0,0,0,0,0,0,0,0,0,0,0,0,0,0,0,0,0,0,0,0,0,0,0,0,0,0,0,0,0,0,0,0,0,0,0,0,0,0,0,0,0,0,0,0,0,0,0,0,0.372,0.372,0,0.3747,0.3747,0.3747,0.373,0.3729,0.3729,0.3728,0.3715,0.3715,0.3715,0,0,0,0,0,0,0,0,0,0,0,0,0,0.3678,0.3678,0.372,0.372,0.3721,0.3747,0.3747,0.3747,0.373,0.3729,0.3729,0.3728,0.3715,0.3715,0.3715,0,0,0,0,0,0,0,0,0,0,0,0,0,0.3697,0.3678,0.372,0.3718,0.3718,0.3747,0.3747,0.3747,0.373,0.3729,0.3728,0.3728,0.3715,0.3715,0.3715,0.3733,0,0,0.3716,0.3716,0,0,0,0,0,0,0,0,0.3696,0.3698,0.3717,0.3718,0.3718,0.3736,0.3727,0.3741,0.373,0.3722,0.3728,0.3727,0.3721,0.3721,0.3724,0.3733,0.3732,0.3716,0.3716,0.3716,0.3716,0,0,0,0,0,0,0,0.3694,0.3697,0.3728,0.3718,0.3719,0.3724,0.3725,0.373,0.3723,0.3723,0.3723,0.373,0.372,0.3724,0.3724,0.3732,0.3716,0.3716,0.3716,0.3717,0.3803,0.3805,0,0,0,0,0,0,0.3696,0.3696,0.3727,0.3729,0.3708,0.3725,0.3727,0.3729,0.3724,0.3723,0.3731,0.3729,0.3724,0.3723,0.3723,0.3775,0.3716,0.3717,0.3717,0.38,0.3803,0.3805,0,0,0,0,0,0,0.3695,0.3699,0.3726,0.3715,0.3719,0.3727,0.373,0.373,0.374,0.3731,0.3729,0.3741,0.3723,0.3723,0.3745,0.3773,0.3717,0.3717,0.3798,0.3801,0.3804,0.3859,0,0,0,0,0,0,0.3694,0.3698,0.3701,0.3715,0.372,0.3752,0.3731,0.3731,0.3747,0.3745,0.3739,0.3737,0.3723,0.3745,0.3745,0.3772,0.3717,0.3795,0.3799,0.3803,0.3854,0.3863,0.3871,0,0,0,0,0,0.3692,0.37,0.37,0.3705,0.3723,0.3754,0.3757,0.3757,0.3748,0.3761,0.3762,0.3737,0.3771,0.3747,0.3747,0.3774,0.3793,0.3798,0.3803,0.385,0.3862,0.3871,0,0,0,0,0,0,0.3679,0.37,0.37,0.3713,0.3737,0.3752,0.3764,0.3767,0.3778,0.3775,0.376,0.3759,0.3792,0.3782,0.3756,0.3815,0.378,0.3785,0.3816,0.3827,0.3835,0.3851,0.3717,0,0,0,0,0,0.368,0.3692,0.3716,0.3727,0.3741,0.3755,0.3767,0.3772,0.3785,0.3788,0.3785,0.3791,0.3813,0.3817,0.3829,0.3856,0.3897,0.3878,0.3886,0.3893,0.3909,0.4002,0.402,0.3821,0.3821,0.3821,0,0,0.3678,0.3692,0.3698,0.3726,0.3742,0.3773,0.3759,0.3786,0.3811,0.3786,0.3813,0.3821,0.383,0.3864,0.3878,0.3856,0.3978,0.3899,0.3905,0.3917,0.4009,0.4028,0.4045,0.3824,0.3824,0.3823,0,0,0.3687,0.3696,0.3712,0.3738,0.3771,0.3788,0.38,0.3824,0.3834,0.3866,0.3863,0.3895,0.3906,0.3929,0.3941,0.4008,0.4023,0.4006,0.4055,0.4144,0.4161,0.4177,0.4277,0.4301,0.4005,0.4005,0.4005,0,0.3684,0.3704,0.3723,0.3752,0.3774,0.3799,0.3828,0.3853,0.388,0.3904,0.3881,0.3948,0.3944,0.4014,0.4033,0.4027,0.4084,0.4009,0.4156,0.4172,0.4187,0.4285,0.4311,0.4008,0.4008,0.4008,0.4007,0,0.3709,0.3728,0.3745,0.3788,0.3819,0.3848,0.389,0.3921,0.3934,0.3962,0.4027,0.4037,0.4082,0.4085,0.4073,0.4179,0.419,0.4159,0.4127,0.421,0.4309,0.4335,0.4013,0.4012,0.4011,0.401,0,0,0.3687,0.3748,0.3751,0.3778,0.3837,0.3867,0.3923,0.3985,0.4053,0.4066,0.4156,0.4173,0.4191,0.4208,0.421,0.4273,0.4423,0.4259,0.4262,0.4356,0.4645,0.4588,0.4611,0.4418,0.4422,0.4425,0.4679,0,0.3696,0.3743,0.3776,0.3833,0.3863,0.3913,0.3976,0.404,0.4103,0.4204,0.4231,0.432,0.4237,0.4288,0.4332,0.4423,0.449,0.4358,0.4554,0.456,0.4496,0.4638,0.4451,0.4655,0.4704,0.4709,0.4712,0,0.3699,0.3734,0.3778,0.3863,0.3884,0.3928,0.4046,0.4112,0.4255,0.4315,0.4395,0.4448,0.4557,0.4479,0.4643,0.4566,0.4608,0.4652,0.4663,0.4607,0.4551,0.4577,0.47,0.4554,0.4751,0.4748,0.4745,0,0.366,0.3733,0.3764,0.379,0.3895,0.3932,0.3999,0.4135,0.4235,0.4415,0.4529,0.4632,0.4732,0.4795,0.4855,0.4782,0.5049,0.4962,0.4948,0.4945,0.4824,0.4802,0.4821,0.508,0.5079,0.5079,0.5078,0,0.3646,0.3675,0.375,0.377,0.3855,0.3923,0.4053,0.4147,0.433,0.4483,0.4585,0.4734,0.4817,0.4958,0.4968,0.5062,0.5142,0.5005,0.502,0.4838,0.4816,0.4708,0.4646,0.5088,0.5086,0.5084,0.5083,0,0.3605,0.364,0.37,0.3799,0.3836,0.3902,0.4084,0.4196,0.4365,0.4582,0.4657,0.4875,0.5058,0.5136,0.5295,0.5225,0.5174,0.5311,0.5098,0.508,0.4869,0.4817,0.4745,0.4598,0.5353,0.5354,0.5354,0,0.3592,0.3609,0.3718,0.377,0.3816,0.3929,0.4022,0.4194,0.4327,0.4655,0.4761,0.5019,0.5158,0.5383,0.5356,0.5418,0.522,0.5256,0.5052,0.4878,0.4833,0.4634,0.4499,0.4937,0.4934,0.4931,0.4929,0,0.36,0.3632,0.3698,0.3784,0.3868,0.397,0.4106,0.4205,0.4429,0.4611,0.4842,0.4989,0.5214,0.5197,0.5287,0.5281,0.4997,0.5201,0.5081,0.4574,0.4303,0.4159,0.4765,0.4906,0.4908,0.491,0.4911,0.4912,0.3634,0.3672,0.3748,0.3818,0.3905,0.3965,0.4008,0.416,0.4325,0.4518,0.4749,0.4862,0.4987,0.508,0.5059,0.4882,0.4845,0.4695,0.4679,0.4517,0.4256,0.4817,0.4917,0.4919,0.4921,0.4923,0.4924,0,0.3671,0.3703,0.3778,0.3841,0.3871,0.3924,0.4034,0.4037,0.4135,0.433,0.4475,0.4546,0.4572,0.4623,0.4558,0.4375,0.4149,0.425,0.3917,0.3831,0.4404,0.426,0.4146,0.4146,0.4146,0.4147,0.4147,0.4147,0.3705,0.3751,0.3752,0.3772,0.3794,0.3769,0.3776,0.3795,0.3873,0.3892,0.3898,0.3986,0.4201,0.4302,0.4132,0.4018,0.3674,0.3526,0.3507,0.3903,0.394,0.3975,0.3823,0.3619,0.3619,0.2741,0.2734,0.2729]},{"header":{"parameterUnit":"m.s-1","parameterCategory":2,"la1":30.2991,"la2":30.254,"lo1":-89.0895,"lo2":-89.0444,"dy":0.0017,"dx":0.0017,"nx":28,"ny":28,"refTime":"2025-02-08T03:00:00:Z","depth":"0","parameterNumber":3,"parameterNumberName":"V-component_of_CURRENTS"},"data":[0,0,0,0,0,0,0,0,0,0,0,0,0,0,0,0,0,0,0,0,0,0,0,0,0,0,0,0,0,0,0,0,0,0,0,0,0,0,0,0,0,0,0,0,0,0,0,0,0,0,0,0,0,0,0,0,0,0,0.0219,0.0218,0,0.0147,0.0146,0.0145,0.0092,0.0092,0.0092,0.0092,0.0004,0.0002,0.0,0,0,0,0,0,0,0,0,0,0,0,0,0,0.0249,0.0249,0.0219,0.0218,0.0217,0.0147,0.0146,0.0145,0.0092,0.0092,0.0092,0.0092,0.0005,0.0003,0.0,0,0,0,0,0,0,0,0,0,0,0,0,0,0.021,0.0249,0.0219,0.0185,0.0181,0.0147,0.0146,0.0144,0.0092,0.0092,0.0092,0.0091,0.0006,0.0003,-0.0,-0.0012,0,0,-0.001,-0.0011,0,0,0,0,0,0,0,0,0.0213,0.0209,0.019,0.0187,0.0183,0.013,0.0125,0.0092,0.0093,0.0124,0.0092,0.0091,0.0047,0.004,0.0025,-0.0017,-0.002,-0.001,-0.0012,-0.0013,-0.0014,0,0,0,0,0,0,0,0.0215,0.0211,0.0188,0.019,0.0185,0.0152,0.0146,0.0118,0.0086,0.0121,0.0117,0.0113,0.0044,0.0028,0.0022,-0.0022,-0.001,-0.0013,-0.0015,-0.0016,-0.0068,-0.0067,0,0,0,0,0,0,0.0233,0.0214,0.019,0.0186,0.02,0.0152,0.0145,0.0146,0.0087,0.0078,0.0114,0.0111,0.0033,0.0026,0.0019,0.0027,-0.0013,-0.0016,-0.0018,-0.0068,-0.0067,-0.0067,0,0,0,0,0,0,0.0234,0.0231,0.0193,0.02,0.0193,0.0152,0.0152,0.0144,0.0133,0.0082,0.0072,0.0112,0.0033,0.0023,0.0006,0.0022,-0.0018,-0.0021,-0.0069,-0.0068,-0.0067,0.0027,0,0,0,0,0,0,0.0235,0.0232,0.0237,0.0202,0.0194,0.0189,0.0153,0.0143,0.0132,0.0128,0.0077,0.0068,0.0032,0.0012,0.0003,0.0017,-0.0023,-0.0069,-0.0068,-0.0067,0.0023,0.0031,0.0037,0,0,0,0,0,0.0236,0.0253,0.0237,0.0234,0.0202,0.0191,0.0184,0.0151,0.0133,0.0137,0.0102,0.007,0.0011,0.001,-0.0,0.0013,-0.007,-0.0069,-0.0067,0.002,0.0029,0.0037,0,0,0,0,0,0,0.0268,0.0248,0.023,0.024,0.0222,0.0183,0.0183,0.016,0.0134,0.013,0.0079,0.0068,0.0056,0.0022,0.0022,-0.0,-0.0036,-0.0036,0.0034,0.0042,0.0049,0.0079,-0.0026,0,0,0,0,0,0.0278,0.0284,0.0258,0.0264,0.0259,0.0221,0.0211,0.0192,0.0165,0.0153,0.0117,0.008,0.0052,0.0039,0.0007,-0.0,-0.0025,-0.0,0.0007,0.0013,0.003,0.0004,0.0011,-0.0063,-0.0063,-0.0063,0,0,0.0291,0.0281,0.0283,0.0271,0.0251,0.0262,0.0214,0.021,0.0218,0.0148,0.0147,0.0103,0.0055,0.0045,0.0036,0.0021,0.0022,0.0015,0.0021,0.0034,0.0006,0.0013,0.002,-0.0062,-0.0062,-0.0063,0,0,0.0331,0.0313,0.0335,0.0328,0.0311,0.0293,0.0299,0.0267,0.0253,0.0243,0.0195,0.0169,0.0124,0.0097,0.0076,0.0104,0.0059,0.0087,0.015,0.0125,0.0131,0.0137,0.0124,0.0128,0.0093,0.0093,0.0094,0,0.0347,0.0372,0.034,0.036,0.0367,0.0317,0.0348,0.0326,0.0293,0.0293,0.0257,0.0199,0.0151,0.0149,0.0152,0.0122,0.0103,0.0124,0.0136,0.0141,0.0145,0.013,0.0133,0.0098,0.0098,0.0097,0.0097,0,0.0405,0.0423,0.0437,0.0449,0.0452,0.0469,0.0443,0.0436,0.0407,0.0388,0.0372,0.0302,0.0272,0.0246,0.0204,0.021,0.0187,0.0148,0.0121,0.0158,0.014,0.0141,0.0105,0.0103,0.0102,0.0101,0,0,0.0449,0.0475,0.048,0.051,0.0504,0.052,0.0529,0.0536,0.0564,0.0502,0.0536,0.0454,0.0412,0.0385,0.0325,0.0297,0.0296,0.024,0.0237,0.0239,0.0254,0.0235,0.0233,0.0258,0.0258,0.0259,0.0234,0,0.0507,0.0577,0.0569,0.0638,0.0676,0.0642,0.0665,0.066,0.0645,0.0663,0.0581,0.0588,0.0467,0.0467,0.041,0.0342,0.0302,0.0308,0.0207,0.0205,0.0192,0.0235,0.0239,0.0218,0.0235,0.0235,0.0235,0,0.0568,0.0612,0.0691,0.0751,0.0765,0.0792,0.0835,0.0855,0.0849,0.0841,0.0809,0.0756,0.071,0.0604,0.0477,0.0488,0.0375,0.0302,0.0299,0.0252,0.0188,0.0179,0.0218,-0.0002,0.0236,0.0236,0.0236,0,0.063,0.07,0.0773,0.079,0.084,0.0867,0.0896,0.0908,0.0965,0.0974,0.1026,0.0925,0.0918,0.0759,0.0583,0.0538,0.0454,0.0371,0.0242,0.024,0.0211,0.0205,0.0036,0.0272,0.0272,0.0272,0.0272,0,0.07,0.0758,0.0808,0.0849,0.0952,0.0951,0.1061,0.1068,0.1126,0.124,0.1132,0.1205,0.0956,0.0871,0.0666,0.0479,0.0509,0.0273,0.0237,0.0243,0.0241,0.0019,-0.0113,0.0271,0.0272,0.0272,0.0272,0,0.0759,0.0783,0.088,0.0952,0.0984,0.1061,0.1186,0.1273,0.1306,0.1457,0.148,0.1431,0.132,0.1066,0.084,0.062,0.0304,0.0345,0.0376,0.0344,-0.0007,-0.0133,-0.0336,-0.0421,0.0198,0.0198,0.0197,0,0.0797,0.085,0.0966,0.1041,0.108,0.1197,0.1288,0.1355,0.147,0.162,0.1712,0.1654,0.1662,0.1317,0.0903,0.055,0.0307,0.0312,0.0205,-0.0007,-0.0175,-0.0275,-0.0339,0.0204,0.0204,0.0204,0.0203,0,0.0885,0.0917,0.1004,0.1151,0.1261,0.1408,0.1546,0.1662,0.178,0.1935,0.2112,0.2146,0.1807,0.1454,0.0939,0.0679,0.0156,0.0293,0.0063,-0.0185,-0.0293,-0.0396,0.0204,0.0201,0.0201,0.0201,0.0201,0.0202,0.0954,0.103,0.1136,0.1278,0.1414,0.1588,0.173,0.1912,0.2137,0.2393,0.2404,0.2512,0.1947,0.1246,0.0869,0.013,0.011,-0.0104,-0.0236,-0.0315,-0.0415,0.019,0.0148,0.0148,0.0148,0.0148,0.0147,0,0.1038,0.112,0.1258,0.1429,0.1588,0.1643,0.1886,0.2059,0.2354,0.26,0.2782,0.2549,0.1899,0.1189,0.0184,-0.0302,-0.0484,-0.0576,-0.0734,-0.0771,-0.0238,-0.0257,-0.0375,-0.0375,-0.0374,-0.0374,-0.0374,-0.0374,0.1087,0.1217,0.1279,0.1534,0.1666,0.1895,0.2041,0.2324,0.254,0.2849,0.2919,0.2915,0.2297,0.0579,-0.0546,-0.0783,-0.114,-0.1239,-0.1391,-0.1061,-0.1027,-0.0995,-0.1045,-0.1325,-0.1327,-0.1855,-0.186,-0.1865]}],[{"header":{"parameterUnit":"m.s-1","parameterCategory":2,"la1":30.2991,"la2":30.254,"lo1":-89.0895,"lo2":-89.0444,"dy":0.0017,"dx":0.0017,"nx":28,"ny":28,"refTime":"2025-02-08T03:00:00:Z","depth":"2","parameterNumber":2,"parameterNumberName":"U-component_of_CURRENTS"},"data":[0,0,0,0,0,0,0,0,0,0,0,0,0,0,0,0,0,0,0,0,0,0,0,0,0,0,0,0,0,0,0,0,0,0,0,0,0,0,0,0,0,0,0,0,0,0,0,0,0,0,0,0,0,0,0,0,0,0,0.3108,0.3108,0,0.3147,0.3147,0.3147,0.3147,0.3147,0.3147,0.3147,0.3156,0.3156,0.3157,0,0,0,0,0,0,0,0,0,0,0,0,0,0.3045,0.3046,0.3108,0.3108,0.3109,0.3147,0.3147,0.3147,0.3147,0.3147,0.3147,0.3147,0.3156,0.3156,0.3157,0,0,0,0,0,0,0,0,0,0,0,0,0,0.3074,0.3046,0.3107,0.3116,0.3118,0.3147,0.3147,0.3147,0.3147,0.3147,0.3147,0.3146,0.3156,0.3156,0.3157,0.3167,0,0,0.3159,0.3159,0,0,0,0,0,0,0,0,0.3072,0.3076,0.3114,0.3116,0.3117,0.3145,0.3128,0.3153,0.3147,0.3133,0.3147,0.3146,0.3152,0.3153,0.3156,0.3167,0.3168,0.3159,0.3159,0.316,0.316,0,0,0,0,0,0,0,0.307,0.3074,0.312,0.3115,0.3117,0.3123,0.3126,0.3133,0.314,0.3134,0.3135,0.3144,0.3152,0.3156,0.3157,0.3168,0.3159,0.316,0.316,0.316,0.3249,0.3251,0,0,0,0,0,0,0.3072,0.3072,0.3119,0.3121,0.3097,0.3124,0.3128,0.3133,0.3141,0.3143,0.3145,0.3144,0.3155,0.3156,0.3157,0.3216,0.316,0.316,0.3161,0.3247,0.325,0.3252,0,0,0,0,0,0,0.307,0.3076,0.3117,0.31,0.3107,0.3126,0.3132,0.3135,0.3152,0.315,0.3151,0.3161,0.3155,0.3156,0.3184,0.3215,0.3161,0.3161,0.3245,0.3248,0.3251,0.3304,0,0,0,0,0,0,0.3068,0.3075,0.3083,0.31,0.3108,0.3146,0.3133,0.3136,0.3159,0.3159,0.3164,0.3164,0.3155,0.3184,0.3185,0.3214,0.3162,0.3242,0.3246,0.325,0.33,0.3309,0.3316,0,0,0,0,0,0.3066,0.3077,0.3083,0.3089,0.3117,0.3147,0.3151,0.3161,0.316,0.3174,0.3183,0.3165,0.3208,0.3186,0.3187,0.3217,0.324,0.3245,0.3249,0.3296,0.3307,0.3316,0,0,0,0,0,0,0.3052,0.3079,0.3085,0.3104,0.313,0.3148,0.3165,0.3172,0.319,0.3193,0.3185,0.3187,0.3226,0.3218,0.3193,0.3257,0.3223,0.3228,0.3259,0.3269,0.3277,0.329,0.3162,0,0,0,0,0,0.3055,0.3072,0.3099,0.3116,0.3131,0.3151,0.3166,0.3177,0.3195,0.3202,0.3208,0.3221,0.3244,0.3253,0.3267,0.3297,0.3321,0.332,0.3329,0.3335,0.3349,0.3418,0.3434,0.3266,0.3266,0.3266,0,0,0.3054,0.3073,0.3082,0.3115,0.3135,0.3165,0.3159,0.3191,0.3218,0.3201,0.3238,0.325,0.3261,0.3298,0.3315,0.3294,0.3398,0.3341,0.3346,0.3357,0.3424,0.3441,0.3455,0.3269,0.3269,0.3268,0,0,0.3063,0.308,0.3099,0.3126,0.3165,0.3183,0.3197,0.3227,0.3244,0.3282,0.3285,0.3321,0.334,0.3363,0.3375,0.3439,0.3442,0.3441,0.3487,0.3554,0.3568,0.3581,0.3639,0.3657,0.3441,0.3441,0.3441,0,0.3063,0.3087,0.3111,0.3141,0.3165,0.3194,0.3224,0.3253,0.3288,0.3313,0.3301,0.3372,0.3376,0.344,0.3462,0.3458,0.3493,0.3444,0.3564,0.3577,0.359,0.3646,0.3665,0.3444,0.3443,0.3443,0.3443,0,0.3085,0.3111,0.3128,0.3175,0.3207,0.3238,0.3283,0.3318,0.3341,0.3369,0.3437,0.3455,0.3499,0.3508,0.3502,0.3594,0.359,0.3569,0.3537,0.361,0.3665,0.3684,0.3448,0.3447,0.3446,0.3445,0,0,0.3062,0.3129,0.3135,0.316,0.3226,0.3251,0.3314,0.3374,0.3427,0.3463,0.3532,0.3575,0.3595,0.3612,0.362,0.3672,0.3785,0.3659,0.3661,0.3713,0.3939,0.3876,0.3889,0.3785,0.3789,0.3791,0.3945,0,0.307,0.312,0.3157,0.321,0.324,0.3294,0.3352,0.3415,0.3474,0.3551,0.3593,0.3664,0.3633,0.3671,0.372,0.3779,0.3836,0.3746,0.3865,0.3869,0.38,0.3909,0.3583,0.3688,0.3963,0.3966,0.3968,0,0.3073,0.3109,0.3154,0.323,0.3249,0.329,0.3391,0.3452,0.3571,0.3626,0.3706,0.3747,0.3845,0.3803,0.3941,0.3887,0.3923,0.3954,0.396,0.3895,0.384,0.3659,0.3711,0.3999,0.3997,0.3994,0.3992,0,0.3029,0.3103,0.3135,0.316,0.3254,0.329,0.3351,0.3468,0.3541,0.369,0.3763,0.387,0.3947,0.401,0.407,0.4024,0.4216,0.4158,0.4134,0.4129,0.3872,0.384,0.4259,0.4259,0.4259,0.4258,0.4258,0,0.3013,0.3039,0.3117,0.3134,0.319,0.3271,0.3358,0.3446,0.3592,0.3687,0.3798,0.3893,0.4006,0.4111,0.4135,0.4208,0.4274,0.4177,0.4178,0.3882,0.385,0.4125,0.4107,0.4264,0.4263,0.4261,0.426,0,0.2956,0.3006,0.3046,0.3137,0.3167,0.321,0.3347,0.342,0.3574,0.3709,0.3764,0.3956,0.4101,0.4195,0.4332,0.43,0.4367,0.4365,0.4013,0.397,0.4216,0.42,0.4366,0.4365,0.4365,0.4364,0.4364,0,0.2929,0.2943,0.3026,0.3051,0.3089,0.3169,0.3229,0.3391,0.3471,0.3725,0.3774,0.3989,0.4094,0.4289,0.4293,0.4357,0.4404,0.4076,0.3923,0.425,0.4235,0.4219,0.4203,0.3607,0.3601,0.3595,0.3591,0,0.2877,0.2905,0.2937,0.2988,0.3038,0.3094,0.3187,0.3245,0.3439,0.3559,0.3725,0.3846,0.4056,0.3988,0.4096,0.4074,0.4039,0.397,0.4428,0.363,0.3546,0.3527,0.3535,0.3543,0.3548,0.3551,0.3554,0.3556,0.2828,0.2833,0.2875,0.2909,0.2957,0.298,0.2982,0.309,0.3185,0.332,0.3537,0.3617,0.372,0.3723,0.3638,0.3581,0.3851,0.3665,0.3676,0.3694,0.3579,0.3498,0.3465,0.3469,0.3472,0.3476,0.3478,0,0.2754,0.2768,0.2796,0.2808,0.2789,0.2876,0.2916,0.288,0.2906,0.3099,0.3216,0.3052,0.3062,0.3153,0.2998,0.3026,0.2941,0.2898,0.2739,0.2793,0.2839,0.2672,0.2322,0.2318,0.2314,0.231,0,0,0.2715,0.2695,0.2699,0.2622,0.2638,0.2571,0.2559,0.2533,0.2591,0.2603,0.2649,0.2947,0.3087,0.2656,0.2621,0.2432,0.2579,0.2345,0.3287,0.3156,0.3196,0.3318,0.3129,0,0,0,0,0]},{"header":{"parameterUnit":"m.s-1","parameterCategory":2,"la1":30.2991,"la2":30.254,"lo1":-89.0895,"lo2":-89.0444,"dy":0.0017,"dx":0.0017,"nx":28,"ny":28,"refTime":"2025-02-08T03:00:00:Z","depth":"2","parameterNumber":3,"parameterNumberName":"V-component_of_CURRENTS"},"data":[0,0,0,0,0,0,0,0,0,0,0,0,0,0,0,0,0,0,0,0,0,0,0,0,0,0,0,0,0,0,0,0,0,0,0,0,0,0,0,0,0,0,0,0,0,0,0,0,0,0,0,0,0,0,0,0,0,0,0.0092,0.0092,0,0.0029,0.0028,0.0027,-0.0018,-0.0018,-0.0019,-0.0019,-0.0095,-0.0097,-0.0099,0,0,0,0,0,0,0,0,0,0,0,0,0,0.012,0.012,0.0093,0.0092,0.0091,0.0029,0.0028,0.0027,-0.0018,-0.0018,-0.0019,-0.0019,-0.0094,-0.0096,-0.0099,0,0,0,0,0,0,0,0,0,0,0,0,0,0.0086,0.012,0.0093,0.0063,0.006,0.0029,0.0028,0.0026,-0.0018,-0.0018,-0.0019,-0.0019,-0.0094,-0.0096,-0.0099,-0.0111,0,0,-0.0108,-0.0109,0,0,0,0,0,0,0,0,0.0088,0.0084,0.0068,0.0065,0.0061,0.0015,0.001,-0.0019,-0.0018,0.0009,-0.0019,-0.0019,-0.0058,-0.0064,-0.0078,-0.0114,-0.0117,-0.0108,-0.0109,-0.0111,-0.0111,0,0,0,0,0,0,0,0.009,0.0087,0.0065,0.0067,0.0063,0.0034,0.0029,0.0003,-0.0024,0.0007,0.0004,0.0,-0.006,-0.0075,-0.008,-0.0119,-0.0108,-0.011,-0.0112,-0.0113,-0.0161,-0.016,0,0,0,0,0,0,0.0105,0.0089,0.0067,0.0064,0.0076,0.0034,0.0028,0.0028,-0.0023,-0.0031,0.0,-0.0002,-0.007,-0.0076,-0.0083,-0.0077,-0.0111,-0.0113,-0.0115,-0.0161,-0.0161,-0.016,0,0,0,0,0,0,0.0106,0.0104,0.007,0.0076,0.007,0.0034,0.0034,0.0027,0.0018,-0.0028,-0.0036,-0.0001,-0.007,-0.0079,-0.0094,-0.0081,-0.0114,-0.0117,-0.0162,-0.0161,-0.016,-0.0079,0,0,0,0,0,0,0.0107,0.0105,0.0109,0.0077,0.007,0.0066,0.0034,0.0026,0.0016,0.0013,-0.0032,-0.004,-0.0071,-0.0089,-0.0096,-0.0085,-0.0119,-0.0162,-0.0161,-0.0161,-0.0082,-0.0076,-0.007,0,0,0,0,0,0.0108,0.0123,0.011,0.0107,0.0078,0.0067,0.0061,0.0032,0.0017,0.0021,-0.001,-0.0038,-0.009,-0.0091,-0.0099,-0.0089,-0.0162,-0.0161,-0.0161,-0.0085,-0.0077,-0.007,0,0,0,0,0,0,0.0137,0.0119,0.0104,0.0112,0.0095,0.0061,0.0061,0.004,0.0018,0.0014,-0.0031,-0.004,-0.005,-0.008,-0.008,-0.0102,-0.0132,-0.0133,-0.0071,-0.0064,-0.0058,-0.0034,-0.0122,0,0,0,0,0,0.0146,0.0151,0.0127,0.0133,0.0129,0.0095,0.0086,0.0069,0.0045,0.0034,0.0003,-0.003,-0.0055,-0.0066,-0.0095,-0.0102,-0.0134,-0.0103,-0.0097,-0.0092,-0.0079,-0.0115,-0.0111,-0.0157,-0.0157,-0.0157,0,0,0.0158,0.0148,0.0151,0.0139,0.0122,0.0131,0.0089,0.0085,0.0091,0.003,0.0029,-0.0009,-0.0052,-0.0062,-0.0069,-0.0084,-0.0096,-0.0091,-0.0085,-0.0075,-0.0114,-0.0109,-0.0105,-0.0157,-0.0157,-0.0157,0,0,0.0192,0.0178,0.0197,0.019,0.0175,0.0158,0.0163,0.0135,0.0122,0.0113,0.0072,0.0047,0.0008,-0.0018,-0.0037,-0.0014,-0.0063,-0.0028,0.0024,-0.0011,-0.0008,-0.0005,-0.0039,-0.004,-0.0024,-0.0024,-0.0024,0,0.0207,0.0228,0.02,0.0218,0.0223,0.0179,0.0206,0.0186,0.0157,0.0155,0.0126,0.007,0.003,0.0022,0.0027,0.0001,-0.0028,0.0002,-0.0002,0.0,0.0002,-0.0034,-0.0036,-0.002,-0.002,-0.0021,-0.0021,0,0.0256,0.0273,0.0285,0.0295,0.0297,0.0312,0.0289,0.0282,0.0257,0.0237,0.0218,0.0157,0.0128,0.0105,0.0072,0.0067,0.0039,0.001,-0.0016,0.0012,-0.0029,-0.0032,-0.0014,-0.0016,-0.0017,-0.0018,0,0,0.0295,0.0318,0.0322,0.0347,0.0343,0.0354,0.0363,0.0366,0.0384,0.033,0.0344,0.0282,0.0244,0.022,0.0168,0.0132,0.0111,0.0083,0.0079,0.0058,0.0034,0.0005,-0.0003,0.008,0.008,0.008,0.0002,0,0.0345,0.0404,0.0399,0.0456,0.0489,0.0459,0.0477,0.0469,0.0453,0.0452,0.0377,0.0367,0.029,0.0278,0.023,0.0148,0.0106,0.0135,0.0003,-0.0,-0.0023,-0.0006,0.003,-0.0038,-0.0002,-0.0003,-0.0003,0,0.0397,0.0435,0.0503,0.0549,0.056,0.0582,0.0612,0.0627,0.0606,0.0592,0.0557,0.0497,0.0441,0.0368,0.0236,0.0259,0.0158,0.0081,0.0075,0.002,-0.0036,-0.0061,-0.0046,-0.0009,-0.0009,-0.0008,-0.0008,0,0.0449,0.0508,0.057,0.0584,0.0624,0.0645,0.0666,0.0669,0.0709,0.0687,0.0703,0.0612,0.0583,0.0443,0.0275,0.0258,0.0125,0.0079,-0.0046,-0.005,-0.0058,-0.0062,-0.0016,-0.0016,-0.0016,-0.0015,-0.0015,0,0.0508,0.0557,0.0599,0.0633,0.0713,0.0714,0.0797,0.0795,0.0827,0.0896,0.0785,0.0806,0.0602,0.0494,0.032,0.0136,0.0156,-0.0029,-0.0068,-0.003,-0.0031,-0.0038,-0.004,-0.0018,-0.0018,-0.0017,-0.0017,0,0.0555,0.0578,0.0657,0.0715,0.074,0.0799,0.0896,0.0963,0.0966,0.1049,0.1048,0.0964,0.0825,0.0603,0.0386,0.0214,0.0024,-0.0052,0.0006,-0.0025,-0.0141,-0.0138,-0.0195,-0.0197,-0.0198,-0.02,-0.02,0,0.0585,0.0628,0.0722,0.0784,0.0815,0.0909,0.0983,0.1029,0.1115,0.1155,0.1204,0.1093,0.1041,0.0698,0.0377,0.0067,0.0023,-0.0112,-0.0146,-0.0125,-0.0158,-0.0152,-0.0147,-0.0129,-0.0129,-0.013,-0.013,0,0.0646,0.0673,0.0744,0.087,0.096,0.1082,0.119,0.1278,0.1346,0.1405,0.1462,0.1421,0.1098,0.0792,0.0356,0.0149,-0.0064,-0.0128,-0.0113,-0.0088,-0.0069,-0.0099,-0.0095,-0.0132,-0.0132,-0.0132,-0.0131,-0.0131,0.0691,0.0753,0.0844,0.0966,0.108,0.1231,0.1348,0.147,0.1609,0.171,0.1661,0.1609,0.1241,0.0697,0.0312,-0.0087,-0.0071,-0.0211,-0.0208,-0.0205,-0.0182,-0.0166,-0.0243,-0.0244,-0.0244,-0.0244,-0.0245,0,0.0753,0.0824,0.0938,0.1087,0.1222,0.1279,0.1473,0.1588,0.1758,0.1844,0.1887,0.1546,0.119,0.0767,0.0169,-0.0191,-0.0206,-0.0295,-0.0242,-0.0236,-0.0232,-0.021,-0.028,-0.0281,-0.0282,-0.0283,0,0,0.0787,0.0899,0.0957,0.1174,0.1292,0.1487,0.1609,0.1767,0.1868,0.195,0.1931,0.186,0.133,0.0891,0.0398,0.0054,-0.0001,-0.0003,0.0067,0.0194,0.0203,-0.0142,-0.0096,0,0,0,0,0]}],[{"header":{"parameterUnit":"m.s-1","parameterCategory":2,"la1":30.2991,"la2":30.254,"lo1":-89.0895,"lo2":-89.0444,"dy":0.0017,"dx":0.0017,"nx":28,"ny":28,"refTime":"2025-02-08T03:00:00:Z","depth":"4","parameterNumber":2,"parameterNumberName":"U-component_of_CURRENTS"},"data":[0,0,0,0,0,0,0,0,0,0,0,0,0,0,0,0,0,0,0,0,0,0,0,0,0,0,0,0,0,0,0,0,0,0,0,0,0,0,0,0,0,0,0,0,0,0,0,0,0,0,0,0,0,0,0,0,0,0,0.2054,0.2055,0,0.2135,0.2136,0.2137,0.2203,0.2204,0.2205,0.2206,0.2297,0.2299,0.23,0,0,0,0,0,0,0,0,0,0,0,0,0,0.1949,0.1951,0.2054,0.2055,0.2056,0.2135,0.2136,0.2137,0.2203,0.2204,0.2205,0.2206,0.2297,0.2299,0.23,0,0,0,0,0,0,0,0,0,0,0,0,0,0.2007,0.1951,0.2053,0.2101,0.2106,0.2135,0.2136,0.2137,0.2203,0.2204,0.2206,0.2207,0.2296,0.2298,0.2301,0.2287,0,0,0.2308,0.2309,0,0,0,0,0,0,0,0,0.2003,0.201,0.2092,0.2097,0.2103,0.2163,0.2133,0.2189,0.2202,0.2163,0.2206,0.2208,0.2254,0.226,0.2268,0.2292,0.2296,0.2308,0.231,0.2311,0.2311,0,0,0,0,0,0,0,0.1999,0.2007,0.2083,0.2094,0.21,0.2116,0.2125,0.2144,0.2198,0.2167,0.2172,0.2185,0.2257,0.2266,0.2271,0.2297,0.2308,0.231,0.2312,0.2313,0.245,0.2452,0,0,0,0,0,0,0.1993,0.2003,0.2081,0.2086,0.2059,0.2117,0.2127,0.214,0.2198,0.2208,0.2184,0.2188,0.2261,0.2268,0.2274,0.2381,0.2311,0.2313,0.2314,0.2448,0.2451,0.2453,0,0,0,0,0,0,0.1991,0.1999,0.2077,0.2048,0.206,0.2118,0.2131,0.2141,0.2196,0.2211,0.2222,0.2234,0.2262,0.2271,0.2335,0.2381,0.2314,0.2316,0.2445,0.2449,0.2452,0.2519,0,0,0,0,0,0,0.1987,0.1998,0.2026,0.2048,0.2062,0.2123,0.213,0.2142,0.22,0.2207,0.2257,0.2264,0.2264,0.2332,0.2338,0.2383,0.2318,0.2443,0.2447,0.2451,0.2514,0.2524,0.2533,0,0,0,0,0,0.1983,0.2008,0.2026,0.2037,0.2091,0.2125,0.2134,0.2176,0.2201,0.223,0.2271,0.2265,0.2363,0.2336,0.2342,0.2389,0.2441,0.2446,0.2451,0.2509,0.2522,0.2532,0,0,0,0,0,0,0.1979,0.2018,0.2039,0.2076,0.2113,0.2138,0.2176,0.2201,0.2254,0.2277,0.229,0.23,0.2374,0.2373,0.2343,0.2443,0.2402,0.2409,0.2445,0.2457,0.2466,0.247,0.232,0,0,0,0,0,0.1989,0.2023,0.2055,0.2092,0.2114,0.2153,0.2182,0.2211,0.2251,0.2278,0.2313,0.2353,0.2391,0.2419,0.2448,0.2498,0.2507,0.2535,0.2545,0.2553,0.2562,0.2615,0.263,0.247,0.247,0.247,0,0,0.1999,0.2026,0.2048,0.2095,0.213,0.2166,0.2175,0.2232,0.2274,0.2278,0.2362,0.2391,0.2413,0.2475,0.2508,0.2486,0.2605,0.2559,0.2566,0.257,0.2622,0.2637,0.2651,0.2473,0.2473,0.2472,0,0,0.2019,0.2061,0.2092,0.2126,0.2186,0.2208,0.2234,0.2285,0.2328,0.2396,0.2416,0.2477,0.2531,0.2559,0.2576,0.2656,0.2654,0.2672,0.2724,0.2776,0.279,0.2801,0.2837,0.2851,0.2676,0.2676,0.2677,0,0.2035,0.2072,0.2108,0.2145,0.2182,0.2231,0.227,0.2315,0.2386,0.2424,0.2437,0.2548,0.2569,0.2642,0.2675,0.2678,0.2703,0.2675,0.2788,0.28,0.2811,0.2844,0.2859,0.268,0.268,0.2679,0.2679,0,0.2061,0.2111,0.2135,0.2197,0.224,0.2287,0.2343,0.2404,0.2461,0.25,0.2602,0.2641,0.2705,0.2726,0.2727,0.2821,0.2812,0.2793,0.2755,0.2831,0.2861,0.2875,0.2686,0.2684,0.2683,0.2682,0,0,0.2041,0.2135,0.2149,0.2187,0.2274,0.2304,0.239,0.2464,0.2531,0.2608,0.2691,0.2767,0.2802,0.2825,0.2845,0.2894,0.2994,0.2886,0.2887,0.2914,0.3112,0.2918,0.2915,0.3,0.3003,0.3005,0.3103,0,0.2055,0.2123,0.2172,0.225,0.2288,0.2364,0.2435,0.2516,0.2595,0.2688,0.2752,0.2842,0.2835,0.289,0.2938,0.2987,0.3036,0.2969,0.3041,0.3042,0.2855,0.2926,0.3014,0.3113,0.3117,0.3119,0.3121,0,0.2055,0.2104,0.2177,0.2277,0.2303,0.2364,0.2488,0.2561,0.2691,0.2761,0.2859,0.2914,0.3019,0.2998,0.3117,0.3081,0.3108,0.3131,0.3135,0.2939,0.2874,0.3022,0.3146,0.3144,0.3142,0.3141,0.3139,0,0.1999,0.2103,0.2163,0.2198,0.2318,0.2381,0.2458,0.2588,0.2662,0.2827,0.2898,0.3016,0.3098,0.3158,0.3212,0.3186,0.3323,0.3284,0.3133,0.3119,0.3234,0.3221,0.3364,0.3364,0.3364,0.3363,0.3363,0,0.1968,0.2021,0.2151,0.2181,0.2264,0.2366,0.2474,0.2573,0.2721,0.28,0.2939,0.3012,0.3148,0.323,0.3255,0.3235,0.3361,0.3153,0.3134,0.3261,0.3249,0.3245,0.3229,0.3367,0.3366,0.3365,0.3365,0,0.1889,0.1977,0.205,0.2189,0.2239,0.2303,0.2467,0.2534,0.2701,0.2814,0.2874,0.3048,0.3153,0.325,0.336,0.3271,0.3287,0.3248,0.3392,0.3378,0.3037,0.3025,0.3079,0.3073,0.3068,0.3063,0.306,0,0.1848,0.1881,0.2034,0.2077,0.2147,0.2261,0.233,0.2508,0.2575,0.2798,0.2826,0.3003,0.3093,0.3093,0.3213,0.3251,0.3214,0.3195,0.3094,0.3033,0.3011,0.3007,0.3001,0.3052,0.305,0.3049,0.3048,0,0.1763,0.1839,0.1897,0.1989,0.207,0.214,0.2255,0.2287,0.2479,0.2653,0.2719,0.2782,0.2892,0.297,0.3029,0.3046,0.319,0.3141,0.315,0.3056,0.3001,0.2983,0.2984,0.303,0.3033,0.3034,0.3035,0,0.1701,0.1718,0.1808,0.187,0.196,0.198,0.2062,0.2136,0.2227,0.2468,0.2487,0.2676,0.2854,0.2865,0.2918,0.2925,0.2874,0.2768,0.2796,0.2816,0.2685,0.2574,0.2465,0,0,0,0,0,0.1624,0.1626,0.1675,0.1724,0.1804,0.1855,0.1987,0.2073,0.2259,0.2241,0.2357,0.2446,0.2528,0.2637,0.2593,0.2805,0.2886,0.274,0.2777,0.2933,0.2953,0.2822,0,0,0,0,0,0,0.1569,0.1612,0.1625,0.1586,0.1591,0.1655,0.173,0.1856,0.1861,0.2067,0.2132,0.2293,0.242,0.2527,0.2543,0.2575,0.2546,0.2869,0.2862,0.2921,0.294,0.2956,0.2828,0,0,0,0,0]},{"header":{"parameterUnit":"m.s-1","parameterCategory":2,"la1":30.2991,"la2":30.254,"lo1":-89.0895,"lo2":-89.0444,"dy":0.0017,"dx":0.0017,"nx":28,"ny":28,"refTime":"2025-02-08T03:00:00:Z","depth":"4","parameterNumber":3,"parameterNumberName":"V-component_of_CURRENTS"},"data":[0,0,0,0,0,0,0,0,0,0,0,0,0,0,0,0,0,0,0,0,0,0,0,0,0,0,0,0,0,0,0,0,0,0,0,0,0,0,0,0,0,0,0,0,0,0,0,0,0,0,0,0,0,0,0,0,0,0,0.0067,0.0067,0,0.0022,0.0022,0.0021,-0.0011,-0.0011,-0.0012,-0.0012,-0.007,-0.0072,-0.0073,0,0,0,0,0,0,0,0,0,0,0,0,0,0.0085,0.0085,0.0067,0.0066,0.0066,0.0022,0.0022,0.0021,-0.0011,-0.0011,-0.0012,-0.0012,-0.007,-0.0071,-0.0073,0,0,0,0,0,0,0,0,0,0,0,0,0,0.0061,0.0085,0.0067,0.0046,0.0043,0.0022,0.0022,0.0021,-0.0011,-0.0012,-0.0012,-0.0012,-0.0069,-0.0071,-0.0073,-0.0082,0,0,-0.008,-0.0081,0,0,0,0,0,0,0,0,0.0063,0.006,0.0049,0.0047,0.0045,0.0012,0.0007,-0.0014,-0.0011,0.0008,-0.0012,-0.0012,-0.0043,-0.0047,-0.0057,-0.0085,-0.0087,-0.008,-0.0081,-0.0082,-0.0083,0,0,0,0,0,0,0,0.0064,0.0062,0.0048,0.0049,0.0046,0.0025,0.0022,0.0002,-0.0017,0.0006,0.0004,0.0002,-0.0045,-0.0055,-0.0059,-0.0088,-0.008,-0.0082,-0.0083,-0.0084,-0.0123,-0.0122,0,0,0,0,0,0,0.0075,0.0064,0.0049,0.0047,0.0055,0.0025,0.0021,0.0022,-0.0017,-0.0022,0.0002,0.0,-0.0051,-0.0056,-0.0061,-0.0057,-0.0082,-0.0084,-0.0085,-0.0123,-0.0123,-0.0122,0,0,0,0,0,0,0.0076,0.0074,0.0051,0.0055,0.0051,0.0026,0.0026,0.0021,0.0014,-0.002,-0.0026,0.0001,-0.0051,-0.0058,-0.0069,-0.006,-0.0085,-0.0087,-0.0123,-0.0123,-0.0122,-0.0059,0,0,0,0,0,0,0.0076,0.0075,0.0079,0.0056,0.0051,0.0049,0.0026,0.002,0.0013,0.0011,-0.0022,-0.0028,-0.0052,-0.0066,-0.0071,-0.0063,-0.0089,-0.0123,-0.0123,-0.0122,-0.0062,-0.0057,-0.0053,0,0,0,0,0,0.0077,0.0088,0.0079,0.0078,0.0058,0.005,0.0045,0.0025,0.0014,0.0017,-0.0005,-0.0027,-0.0067,-0.0067,-0.0074,-0.0066,-0.0124,-0.0123,-0.0123,-0.0064,-0.0058,-0.0053,0,0,0,0,0,0,0.0098,0.0086,0.0075,0.0082,0.007,0.0045,0.0046,0.0031,0.0015,0.0013,-0.0021,-0.0028,-0.0037,-0.006,-0.0059,-0.0077,-0.01,-0.0101,-0.0053,-0.0048,-0.0043,-0.0025,-0.0091,0,0,0,0,0,0.0105,0.011,0.0093,0.0097,0.0095,0.0071,0.0064,0.0052,0.0035,0.0027,0.0004,-0.0022,-0.004,-0.005,-0.0071,-0.0078,-0.0108,-0.0079,-0.0075,-0.007,-0.006,-0.0097,-0.0095,-0.012,-0.012,-0.012,0,0,0.0114,0.0108,0.011,0.0102,0.009,0.0098,0.0066,0.0064,0.007,0.0023,0.0024,-0.0006,-0.0039,-0.0046,-0.0053,-0.0064,-0.008,-0.007,-0.0066,-0.0058,-0.0096,-0.0094,-0.0092,-0.012,-0.012,-0.012,0,0,0.0139,0.013,0.0145,0.014,0.0131,0.0119,0.0123,0.0102,0.0093,0.0088,0.0056,0.0036,0.0007,-0.0014,-0.0029,-0.0012,-0.0055,-0.0023,0.0017,-0.0019,-0.0017,-0.0016,-0.0053,-0.0056,-0.002,-0.002,-0.002,0,0.0151,0.0167,0.0147,0.0161,0.0167,0.0135,0.0156,0.0141,0.012,0.0119,0.0098,0.0054,0.0024,0.0015,0.0019,-0.0001,-0.003,0.0001,-0.0012,-0.0011,-0.0011,-0.005,-0.0054,-0.0017,-0.0017,-0.0017,-0.0018,0,0.0187,0.0201,0.021,0.022,0.0223,0.0234,0.0219,0.0214,0.0197,0.0183,0.0167,0.012,0.0097,0.0078,0.0055,0.0045,0.002,-0.0002,-0.0023,-0.0005,-0.0047,-0.0052,-0.0012,-0.0013,-0.0014,-0.0015,0,0,0.0213,0.0233,0.0238,0.0257,0.0258,0.0267,0.0276,0.0279,0.0292,0.0252,0.026,0.0214,0.0185,0.0166,0.0125,0.0091,0.0063,0.0052,0.0049,0.0021,-0.0019,-0.0035,-0.0043,0.0038,0.0038,0.0037,-0.0051,0,0.0249,0.0294,0.0293,0.034,0.0364,0.0346,0.0361,0.0357,0.0346,0.0342,0.0283,0.0275,0.022,0.0211,0.0167,0.0093,0.0054,0.0089,-0.0038,-0.0041,-0.0053,-0.0047,0.0036,-0.0054,-0.0056,-0.0056,-0.0057,0,0.0285,0.0315,0.0368,0.0408,0.0417,0.0439,0.0465,0.0477,0.046,0.0449,0.042,0.0374,0.0322,0.027,0.0148,0.0173,0.0088,0.002,0.0015,-0.0023,-0.0066,-0.0078,-0.0066,-0.0066,-0.0065,-0.0064,-0.0064,0,0.0317,0.0367,0.0416,0.0429,0.0465,0.0486,0.0507,0.0511,0.0542,0.0523,0.0533,0.0455,0.0424,0.0306,0.0164,0.0158,0.0021,-0.0008,-0.0106,-0.0109,-0.0095,-0.0096,-0.0093,-0.0093,-0.0093,-0.0093,-0.0093,0,0.0354,0.0395,0.0438,0.0465,0.0532,0.0538,0.0608,0.0608,0.0632,0.0676,0.0598,0.0598,0.0432,0.0331,0.019,0.003,0.0038,-0.0095,-0.0129,-0.0068,-0.0065,-0.01,-0.0099,-0.0096,-0.0095,-0.0095,-0.0094,0,0.038,0.0405,0.0469,0.0524,0.055,0.06,0.0687,0.0737,0.0742,0.0793,0.0792,0.0711,0.0576,0.0396,0.0202,0.0077,-0.0084,-0.0145,-0.0062,-0.0092,-0.0198,-0.0193,-0.0259,-0.026,-0.0261,-0.0262,-0.0263,0,0.0396,0.043,0.0517,0.057,0.0602,0.0684,0.0747,0.079,0.085,0.0861,0.0885,0.0776,0.0693,0.0416,0.0213,-0.0062,-0.0106,-0.0195,-0.0201,-0.0186,-0.0213,-0.0207,-0.0201,-0.0264,-0.0264,-0.0265,-0.0265,0,0.0428,0.0458,0.0516,0.0624,0.0704,0.0806,0.0895,0.0946,0.0992,0.0995,0.097,0.0819,0.0663,0.0431,0.0214,0.0015,-0.0141,-0.0207,-0.0206,-0.0213,-0.0194,-0.0218,-0.0211,-0.0269,-0.0268,-0.0268,-0.0268,0,0.0454,0.0499,0.0578,0.0676,0.0783,0.0891,0.0939,0.1005,0.1059,0.1058,0.1046,0.0867,0.0766,0.047,0.0272,0.0071,0.0013,-0.006,-0.0068,-0.0067,0.0006,0.0059,0.0039,0,0,0,0,0,0.0478,0.0534,0.0625,0.0737,0.0846,0.0914,0.1023,0.1064,0.11,0.1096,0.1076,0.0927,0.0633,0.0512,0.031,0.0232,-0.0035,-0.0015,-0.0126,-0.0289,-0.0285,-0.0235,0,0,0,0,0,0,0.0495,0.0579,0.0625,0.077,0.0856,0.0985,0.106,0.1089,0.1091,0.1088,0.0945,0.0864,0.0588,0.0751,0.0303,0.0241,0.0139,-0.0151,-0.0156,-0.0291,-0.0288,-0.0284,-0.0231,0,0,0,0,0]}]]